Showing default

GLOBALSTAR M066, 32265

Orbit data source: Space-Track

GLOBALSTAR M066, 32265 is a payload satellite owned by Globalstar (US) in LEO that was launched on Sat, 20 Oct 2007 UTC via a SOYUZ-FG launch vehicle from the Tyuratam Missile And Space Complex (TTMTR). Payload-class satellites include a variety of spacecraft equipped with specific instruments for various scientific and technological missions. These include communications satellites like Starlink; space stations such as the ISS; scientific satellites like the Hubble; Earth observation satellites from companies like Planet Labs, Umbra, and HawkEye 360; GPS; miniature CubeSats for education and research; and military/defense satellites.

Loading next visibility...
Identifier
32265, 2007-048C
Orbit
LEO
Last TLE update
5 hours ago
Origin
Manufacturer
SS/Loral
Mission
Operational Commercial Communications
Bus & Motor
LS-400, LS-400 AOCS
Mass
450 kg wet, 380 kg dry
Launch date (UTC)
2007-10-20 (18 years ago)
Launch vehicle
SOYUZ-FG
Launch site
Tyuratam Missile And Space Complex (TTMTR)
Object type
Payload
Rocket body
Debris
Shape & HBR
Box + 2 Pan, 12 m
Radar Cross Section
5.587 m², Large (>1 m²)

Expand to show TLE details & history

TLE from 5 hours ago
0 GLOBALSTAR M066
1 32265U 07048C   25186.85559255 -.00000079  00000-0  12990-3 0  9994
2 32265  51.9631 332.0558 0003881  19.3742 139.4225 12.30048750818549
Epoch: 2025-07-05T20:32Z
TLE epoch observation values (Epoch: 2025-07-05T20:32:03.196Z)
Latitude
16.55017°
Longitude
-93.42171°
Altitude
1,551.457 km
Speed
7.092 km/s
True Right ascension
09h 14m 43s
True Declination
16° 27' 57"
Sunlit
Object was in daylight at epoch
Visualization orbit readout
Latitude
-37.47927°
Longitude
62.74018°
Altitude
1,560.088 km
Speed
7.088 km/s
Apparent Right ascension
22h 00m 10s
Apparent Declination
-46° 27' 60"
Sunlit
Object is in full shadow
Visualization observer readout
Local Sidereal Time
13:11:47
Azimuth
116.942° SE
Elevation
-55.017°
Doppler factor
1
Orbital elements
Apogee altitude
1,552.539 km
Perigee altitude
1,546.386 km
Semi-major axis
7,927.6 km
Eccentricity
0.00039
Inclination
51.9631°
RAAN
332.0558°
Arg. of periapsis
19.3742°
True anomaly
Unknown
Mean anomaly
139.4225°
Eccentric anomaly
Unknown
Mean motion
3.0749 °/min
Orbital period
117.08 mins
BSTAR
0.0001299
Loading maneuver chart data...
Loading SW <> Apogee altitude chart data...
Loading historical data...
Loading historical data...
Loading historical data...
Loading historical data...
Loading historical data...
Loading historical data...
Loading historical data...
Other satellites on launch #48 in the year 2007 (2007-10-20 UTC)

GLOBALSTAR M066 Visibility forecast

Observer location: undefined°, undefined°

Span
Click to sort rows by Start time (UTC) header in descending order
Start Az.
Max El. time (UTC)
Max El. Az.
Max El.
End time (UTC)
End Az.
16 mins2025-07-06 11:23:08.490Z196.893° SSW2025-07-06 11:31:08.490Z126.004° SE36.205°2025-07-06 11:39:08.490Z61.231° ENE
16 mins2025-07-06 13:26:08.490Z250.758° W2025-07-06 13:34:08.490Z340.972° N42.116°2025-07-06 13:42:08.490Z50.335° ENE
15 mins2025-07-06 15:31:08.490Z292.233° WNW2025-07-06 15:38:08.490Z351.505° N32.688°2025-07-06 15:46:08.490Z60.141° ENE
16 mins2025-07-06 17:36:08.490Z311.534° NW2025-07-06 17:43:08.490Z17.053° NNE37.924°2025-07-06 17:52:08.490Z96.184° ESE
17 mins2025-07-06 19:39:08.490Z303.531° NW2025-07-06 19:47:08.490Z213.986° SW43.23°2025-07-06 19:56:08.490Z143.071° SSE
10 mins2025-07-06 21:44:08.490Z272.929° WNW2025-07-06 21:48:08.490Z244.923° WSW17.161°2025-07-06 21:54:08.490Z203.849° SW
|